Location: ????????
(60.4333°N, 46.4710°E)
Time: 04:06:52
(UTC+00:00)

H-2A R/B - Pass Details

Date: 25 November 2020
Orbit: 578 x 654 km, 98.5° (Epoch: 19 January)

Event Time Altitude Azimuth Distance (km) Brightness Sun altitude
Exits shadow 14:36:44 16° 18° (NNE) 1,592 3.9 -17.5°
Maximum altitude 14:40:06 90° 11° (NNE) 599 1.9 -17.9°
Drops below altitude 10° 14:44:19 10° 200° (SSW) 1,939 5.0 -18.5°
Sets 14:46:29 0° 200° (SSW) 2,849 5.9 -18.7°
